Weather reports worldwide

Advertisment
Helsingborg, Sweden (2611): temperature & dewpoint: 23.05.2020 00:00:00 - 29.05.2020 00:00:00 (CEST)Helsingborg, Sweden (2611): wind speed & gusts: 23.05.2020 00:00:00 - 29.05.2020 00:00:00 (CEST)Helsingborg, Sweden (2611): wind direction: 23.05.2020 00:00:00 - 29.05.2020 00:00:00 (CEST)Helsingborg, Sweden (2611): reduced air pressure: 23.05.2020 00:00:00 - 29.05.2020 00:00:00 (CEST)Helsingborg, Sweden (2611): visibility: 23.05.2020 00:00:00 - 29.05.2020 00:00:00 (CEST)Helsingborg, Sweden (2611): precipitation: 23.05.2020 00:00:00 - 29.05.2020 00:00:00 (CEST)
Date & Time tt [°C] td [°C] ff [km/h] ff [kn] fx [km/h] fx [kn] dd ppp [hPa] vv [km] rr [mm]
29.05.2020 00:00:00 8,5 6,9 3 2 7 4 NW 1031,1 45 0,0
28.05.2020 23:00:00 8,4 6,0 4 2 7 4 NNW 1031,2 47 0,0
28.05.2020 22:00:00 10,9 6,6 4 2 12 6 NW 1031,2 50 0,0
28.05.2020 21:00:00 13,4 6,3 8 5 15 8 WNW 1031,0 50 0,0
28.05.2020 20:00:00 14,6 5,7 10 5 22 12 WNW 1030,9 49 0,0
28.05.2020 19:00:00 16,6 2,2 11 6 22 12 NW 1030,8 42 0,0
28.05.2020 18:00:00 16,3 7,0 10 6 24 13 WNW 1031,0 45 0,0
28.05.2020 17:00:00 17,9 5,9 16 8 27 15 NW 1031,1 37 0,0
28.05.2020 16:00:00 15,9 8,1 16 9 27 15 WNW 1031,3 28 0,0
28.05.2020 15:00:00 16,3 8,3 16 8 29 16 WNW 1031,3 29 0,0
28.05.2020 14:00:00 15,7 9,1 19 10 32 18 WNW 1031,3 36 0,0
28.05.2020 13:00:00 15,9 8,4 18 10 29 15 WNW 1031,2 28 0,0
28.05.2020 12:00:00 16,3 8,3 14 8 23 12 WNW 1031,3 32 0,0
28.05.2020 11:00:00 16,4 9,2 13 7 22 12 W 1031,0 25 0,0
28.05.2020 10:00:00 16,4 10,0 10 5 19 10 WNW 1030,9 34 0,0
28.05.2020 09:00:00 17,0 9,2 8 4 22 12 NNW 1030,7 34 0,0
28.05.2020 08:00:00 14,7 9,3 13 7 24 13 NNW 1030,6 33 0,0
28.05.2020 07:00:00 13,1 9,5 10 6 18 10 NNW 1030,5 34 0,0
28.05.2020 06:00:00 10,8 8,7 9 5 20 11 NW 1030,2 25 0,0
28.05.2020 05:00:00 10,0 8,4 10 6 19 10 NW 1029,9 15 0,0
28.05.2020 04:00:00 10,2 8,6 11 6 20 11 NW 1029,9 12 0,0
28.05.2020 03:00:00 10,1 8,2 12 6 21 11 NW 1029,9 13 0,0
28.05.2020 02:00:00 10,3 8,1 12 6 24 13 NW 1030,2 14 0,0
28.05.2020 01:00:00 10,6 7,8 14 8 30 16 NW 1030,2 16 0,0
28.05.2020 00:00:00 11,2 7,3 16 8 29 16 NW 1030,2 21 0,0
27.05.2020 23:00:00 11,5 7,6 12 7 30 16 NW 1030,1 24 0,0
27.05.2020 22:00:00 11,8 6,5 16 8 33 18 NW 1030,1 27 0,0
27.05.2020 21:00:00 12,7 7,2 18 10 34 18 NW 1029,6 25 0,0
27.05.2020 20:00:00 12,9 7,1 16 9 39 21 NW 1029,6 26 0,0
27.05.2020 19:00:00 13,1 6,4 17 9 35 19 NW 1029,8 38 0,0
27.05.2020 18:00:00 13,8 5,9 16 9 34 18 NW 1029,9 39 0,0
27.05.2020 17:00:00 13,7 6,3 20 11 35 19 WNW 1030,2 36 0,0
27.05.2020 16:00:00 14,4 6,2 18 10 37 20 NW 1030,4 37 0,0
27.05.2020 15:00:00 14,9 7,7 20 11 41 22 NW 1030,8 30 0,0
27.05.2020 14:00:00 15,1 7,4 19 10 38 20 NW 1030,8 38 0,0
27.05.2020 13:00:00 15,9 9,3 15 8 28 15 WNW 1031,0 20 0,0
27.05.2020 12:00:00 14,7 9,5 13 7 28 15 W 1031,1 17 0,0
27.05.2020 11:00:00 16,6 10,3 14 7 24 13 NW 1031,1 23 0,0
27.05.2020 10:00:00 15,0 9,8 13 7 22 12 NW 1031,1 21 0,0
27.05.2020 09:00:00 15,4 10,6 9 5 20 11 WNW 1031,2 28 0,0
27.05.2020 08:00:00 14,9 9,3 10 5 20 11 NW 1031,5 29 0,0
27.05.2020 07:00:00 13,4 12,1 5 3 12 6 NW 1031,7 25 0,0
27.05.2020 06:00:00 9,9 9,3 2 1 5 3 S 1031,8 15 0,0
27.05.2020 05:00:00 9,2 8,7 2 1 4 2 WSW 1032,2 13 0,0
27.05.2020 04:00:00 8,1 7,3 0 0 3 2 N 1032,2 4,8 0,0
27.05.2020 03:00:00 8,6 7,8 0 0 5 3 N 1032,8 7 0,0
27.05.2020 02:00:00 9,2 8,3 0 0 4 2 N 1033,1 6 0,0
27.05.2020 01:00:00 9,8 8,7 0 0 4 2 N 1033,3 12 0,0
27.05.2020 00:00:00 10,6 9,2 2 1 6 3 SSE 1033,7 24 0,0
26.05.2020 23:00:00 11,2 9,4 4 2 6 3 SSE 1033,9 40 0,0
26.05.2020 22:00:00 12,3 9,5 3 2 8 4 SSE 1034,1 47 0,0
26.05.2020 21:00:00 13,9 9,7 3 2 8 5 S 1034,1 49 0,0
26.05.2020 20:00:00 16,1 7,6 3 2 15 8 SE 1034,1 48 0,0
26.05.2020 19:00:00 17,3 5,3 6 4 15 8 WNW 1034,3 40 0,0
26.05.2020 18:00:00 18,1 7,5 8 5 14 7 W 1034,3 40 0,0
26.05.2020 17:00:00 17,8 8,9 9 5 16 9 NW 1034,5 47 0,0
26.05.2020 16:00:00 18,3 9,9 9 5 20 11 WSW 1034,8 38 0,0
26.05.2020 15:00:00 18,4 10,2 11 6 22 12 WSW 1035,0 25 0,0
26.05.2020 14:00:00 18,7 9,2 16 9 22 12 SSW 1035,0 30 0,0
26.05.2020 13:00:00 18,3 9,9 14 7 20 11 SSW 1035,1 34 0,0
26.05.2020 12:00:00 17,3 10,4 11 6 18 10 S 1035,3 34 0,0
26.05.2020 11:00:00 16,8 10,6 13 7 20 11 SW 1035,3 35 0,0
26.05.2020 10:00:00 16,5 11,4 9 5 26 14 S 1035,1 29 0,0
26.05.2020 09:00:00 15,3 11,3 6 4 12 6 SSE 1034,8 25 0,0
26.05.2020 08:00:00 13,7 11,7 5 3 8 5 ESE 1034,6 25 0,0
26.05.2020 07:00:00 11,7 10,9 3 2 8 4 ESE 1034,3 28 0,0
26.05.2020 06:00:00 7,8 7,2 0 0 3 2 N 1034,1 15 0,0
26.05.2020 05:00:00 6,5 5,9 0 0 4 2 N 1033,6 9 0,0
26.05.2020 04:00:00 7,2 6,5 3 1 7 4 N 1033,3 14 0,0
26.05.2020 03:00:00 6,9 6,0 4 2 7 4 NNE 1033,0 14 0,0
26.05.2020 02:00:00 7,8 6,9 2 1 6 3 WNW 1032,7 22 0,0
26.05.2020 01:00:00 8,5 7,3 0 0 6 3 N 1032,7 19 0,0
26.05.2020 00:00:00 9,1 7,7 3 1 10 5 WNW 1032,3 26 0,0
25.05.2020 23:00:00 9,4 7,5 8 4 13 7 N 1031,9 27 0,0
25.05.2020 22:00:00 12,1 8,6 9 5 19 10 NNW 1031,7 38 0,0
25.05.2020 21:00:00 13,0 8,3 14 7 27 14 NNW 1031,1 45 0,0
25.05.2020 20:00:00 15,4 8,6 16 8 33 18 N 1030,5 38 0,0
25.05.2020 19:00:00 16,9 8,6 18 10 31 17 NNW 1029,9 38 0,0
25.05.2020 18:00:00 17,7 8,8 16 9 29 16 NNW 1029,2 39 0,0
25.05.2020 17:00:00 18,2 9,8 18 10 30 16 NNW 1028,8 44 0,0
25.05.2020 16:00:00 - - - - 29 16 - - - -
25.05.2020 15:00:00 16,3 9,2 17 9 29 16 WNW 1027,9 36 0,0
25.05.2020 14:00:00 17,1 9,8 14 8 26 14 N 1027,3 15 0,0
25.05.2020 13:00:00 17,5 11,3 15 8 26 14 N 1026,6 33 0,0
25.05.2020 12:00:00 14,5 9,7 15 8 22 12 N 1026,0 31 0,0
25.05.2020 11:00:00 15,7 9,6 9 5 19 10 NE 1025,1 26 0,0
25.05.2020 10:00:00 13,7 10,1 9 5 15 8 N 1024,3 14 0,0
25.05.2020 09:00:00 13,0 10,4 5 3 10 6 NNE 1023,2 13 0,0
25.05.2020 08:00:00 11,8 10,2 7 4 10 6 N 1022,1 12 0,0
25.05.2020 07:00:00 10,9 9,5 6 3 14 8 NW 1021,4 11 0,0
25.05.2020 06:00:00 10,4 9,0 6 3 19 10 WNW 1020,8 7 0,0
25.05.2020 05:00:00 10,1 8,5 6 3 20 11 W 1020,2 12 0,0
25.05.2020 04:00:00 10,1 8,2 11 6 20 11 WNW 1019,5 14 0,0
25.05.2020 03:00:00 9,7 8,5 9 5 22 12 W 1019,1 11 0,0
25.05.2020 02:00:00 9,5 8,3 9 5 28 15 W 1018,9 7 0,0
25.05.2020 01:00:00 10,1 7,9 14 8 29 16 W 1018,6 25 0,0
25.05.2020 00:00:00 10,0 8,3 9 5 28 15 W 1018,4 40 0,0
24.05.2020 23:00:00 10,2 8,1 11 6 25 14 W 1018,4 42 0,0
24.05.2020 22:00:00 10,4 8,5 13 7 32 17 W 1018,2 25 0,0
24.05.2020 21:00:00 10,2 8,8 11 6 30 16 WSW 1018,1 16 0,9
24.05.2020 20:00:00 10,5 8,9 11 6 26 14 WSW 1018,0 9 0,6
24.05.2020 19:00:00 10,7 9,0 13 7 31 17 WSW 1018,0 10 0,5
24.05.2020 18:00:00 11,1 8,5 15 8 35 19 W 1017,9 13 0,1
24.05.2020 17:00:00 12,7 7,3 17 9 35 19 W 1017,6 24 0,0
24.05.2020 16:00:00 13,0 7,7 17 9 39 21 W 1017,4 25 0,0
24.05.2020 15:00:00 11,9 8,6 15 8 30 16 WSW 1017,1 16 0,0
24.05.2020 14:00:00 12,6 8,1 16 8 32 17 W 1016,9 13 0,1
24.05.2020 13:00:00 12,9 8,4 19 10 36 20 W 1016,8 14 0,0
24.05.2020 12:00:00 12,4 8,7 17 9 34 19 WSW 1016,6 14 0,0
24.05.2020 11:00:00 11,7 9,3 16 9 29 16 WSW 1016,7 11 0,4
24.05.2020 10:00:00 11,7 8,7 17 9 28 15 SW 1016,5 17 0,1
24.05.2020 09:00:00 11,1 9,0 15 8 30 16 WSW 1016,3 10 0,1
24.05.2020 08:00:00 11,5 9,2 15 8 26 14 SW 1016,1 19 0,0
24.05.2020 07:00:00 10,5 8,8 14 7 26 14 SSW 1015,7 10 0,2
24.05.2020 06:00:00 10,7 8,5 13 7 24 13 SSW 1015,9 14 0,0
24.05.2020 05:00:00 10,2 8,0 12 7 22 12 SSW 1016,1 15 0,0
24.05.2020 04:00:00 10,5 7,9 11 6 19 10 SSW 1016,4 16 0,0
24.05.2020 03:00:00 10,4 7,5 10 5 18 10 S 1016,6 17 0,0
24.05.2020 02:00:00 9,8 7,2 12 6 19 10 S 1017,1 16 0,0
24.05.2020 01:00:00 9,8 6,5 10 5 16 8 SW 1017,1 18 0,0
24.05.2020 00:00:00 10,5 6,4 10 5 27 15 SW 1017,2 19 0,0
23.05.2020 23:00:00 11,3 6,3 12 7 28 15 WSW 1017,1 19 0,0
23.05.2020 22:00:00 12,0 5,6 14 8 37 20 WSW 1017,0 21 0,0
23.05.2020 21:00:00 12,8 5,5 19 11 39 21 WSW 1016,6 20 0,0
23.05.2020 20:00:00 14,1 4,9 20 11 42 23 WSW 1015,9 26 0,0
23.05.2020 19:00:00 15,2 4,6 23 12 41 22 WSW 1015,4 21 0,0
23.05.2020 18:00:00 16,1 4,2 25 13 46 25 WSW 1015,2 31 0,0
23.05.2020 17:00:00 16,7 5,9 22 12 45 24 W 1015,2 22 0,0
23.05.2020 16:00:00 16,4 6,2 19 11 34 19 W 1015,0 20 0,0
23.05.2020 15:00:00 15,9 7,9 14 8 32 17 WSW 1014,7 21 0,0
23.05.2020 14:00:00 14,0 12,0 10 5 20 11 S 1014,8 9 0,0
23.05.2020 13:00:00 14,1 11,6 12 7 22 12 S 1015,0 11 0,0
23.05.2020 12:00:00 14,6 12,3 12 7 22 12 S 1014,8 12 0,0
23.05.2020 11:00:00 12,5 11,5 9 5 19 10 S 1015,0 7 0,0
23.05.2020 10:00:00 12,3 11,4 11 6 17 9 S 1015,3 7 0,0
23.05.2020 09:00:00 11,5 10,7 10 5 18 10 S 1015,6 9 0,0
23.05.2020 08:00:00 11,2 10,6 8 5 16 9 S 1015,7 7 0,0
23.05.2020 07:00:00 10,4 9,6 8 4 18 10 S 1015,5 8 0,0
23.05.2020 06:00:00 10,0 9,2 9 5 26 14 SSE 1015,8 11 0,0
23.05.2020 05:00:00 9,9 9,1 10 5 29 16 SSE 1015,9 12 0,0
23.05.2020 04:00:00 9,8 9,0 14 8 28 15 SSE 1016,2 16 0,3
23.05.2020 03:00:00 9,8 8,9 13 7 32 17 S 1016,5 7 4,4
23.05.2020 02:00:00 10,1 8,2 16 9 35 19 S 1017,1 6 3,3
23.05.2020 01:00:00 11,0 5,7 13 7 35 19 SSE 1016,7 24 0,0
23.05.2020 00:00:00 11,6 4,8 16 9 36 19 SE 1017,4 50 0,0

tt = temperature
td = dewpoint
ff = wind speed
fx = gusts
dd = wind direction
ppp = reduced air pressure
vv = visibility
rr = precipitation

Next stations